Погода в Базлыке

Россия / Республика Башкортостан     53°45′03″N   54°16′26″E
темп.,
°C
ветер,
м/с
пор.,
м/с
влажн.,
%
обл.,
%
осадки,
мм/ч
давл.,
гПа
погр.,
м
27 октября, ср
ср2723:00−1юз6126362 0.0 1026456
02:00−1юз6136892 0.0 1026406
05:00−1юз6137157 0.0 1025405
08:00−1юз61374100 0.0 1024396
11:00+1юз7126587 0.0 1023479
14:00+4юз71359100 0.0 1022707
17:00+4юз81558100 0.0 1021648
20:00+3юз81559100 0.0 1021537
28 октября, чт
чт2823:00+2юз81662100 0.0 1020503
02:00+1юз8166395 0.0 1019465
05:000юз8176347 0.0 1017504
08:000юз9176183 0.0 1016612
11:00+1зюз81466100 0.0 1016633
14:00+2зюз71272100 0.0 1017574
17:00+3юз61269100 0.0 1017555
20:00+3юз61170100 0.0 1017421
29 октября, пт
пт2923:00+2юз51275100 0.0 1017367
02:00+3юз51072100 0.0 1016376
05:00+2зюз4970100 0.0 1017306
08:00+1зюз3797100 0.1 1018363
11:00+2зсз2699100 0.8 1021367
14:00+2ссв567865 0.1 1024556
17:00+2ссв45440 0.1 1027622
20:00−2св35540 0.0 1030123
30 октября, сб
сб3023:00−3всв115488 0.0 103110
02:00−2ююз2251100 0.0 103257
05:00−2юз3754100 0.0 1031200
08:00−1юз5126599 0.0 1030338
11:00+1юз8167028 0.0 1029537
14:00+5зюз9176351 0.0 1027701
17:00+5зюз917715 0.0 1026580
20:00+4з8177936 0.0 1027486
31 октября, вс
вс3123:00+4з7168680 0.0 1027375
02:00+3з51292100 0.0 1028306
05:00+4з4994100 0.0 1029239
08:00+4зюз3795100 0.0 1029187
11:00+5зюз4892100 0.0 1030265
14:00+6з4784100 0.0 1030313
17:00+7зюз488235 0.0 1030389
20:00+5зюз498830 0.0 1030168